Location: Unnamed
(55.7043°N, 37.5561°E)
Time: 03:15:15
(UTC+03:00)

ISS - Pass Details

Date: 23 November 2023
Orbit: 414 x 422 km, 51.6° (Epoch: 01 March)

Event Time Altitude Azimuth Distance (km) Brightness Sun altitude
Rises 18:32:13 0° 246° (WSW) 2,407 1.5 -18.9°
Reaches altitude 10° 18:34:24 10° 238° (WSW) 1,545 0.1 -19.2°
Maximum altitude 18:37:39 38° 169° (S) 688 -2.8 -19.7°
Enters shadow 18:37:49 38° 162° (SSE) 692 -2.8 -19.7°
